START_TIME,STEP,MOV.,P11,t_acc.,P23,t_acc.,P27,t_acc.,A4,t_acc.
1979-07-28 12:00:22.280 ,0,0,0.,4.8,0.,4.8,0.,4.8,0.,4.8
1979-07-28 12:00:27.090 ,0,0,3.,4.8,0.,4.8,0.,4.8,0.,4.8
1979-07-28 12:00:31.890 ,0,0,0.,4.8,0.,4.8,0.,4.8,0.,4.8
1979-07-28 12:00:36.690 ,0,0,2.,4.8,0.,4.8,0.,4.8,0.,4.8
1979-07-28 12:00:41.490 ,0,0,1.,4.8,0.,4.8,0.,4.8,0.,4.8
1979-07-28 12:00:46.280 ,1,0,0.,4.8,0.,4.8,0.,4.8,0.,4.8
1979-07-28 12:00:51.090 ,1,0,1.,4.8,1.,4.8,0.,4.8,0.,4.8
1979-07-28 12:00:55.890 ,1,0,4.,4.8,0.,4.8,0.,4.8,0.,4.8
1979-07-28 12:01:00.690 ,1,0,1.,4.8,0.,4.8,0.,4.8,0.,4.8
1979-07-28 12:01:05.490 ,1,0,2.,4.8,0.,4.8,0.,4.8,0.,4.8
1979-07-28 12:01:10.280 ,1,0,5.,4.8,0.,4.8,0.,4.8,0.,4.8
1979-07-28 12:01:15.080 ,1,0,1.,4.8,0.,4.8,0.,4.8,0.,4.8
1979-07-28 12:01:19.890 ,1,0,0.,4.8,0.,4.8,0.,4.8,0.,4.8
1979-07-28 12:01:24.690 ,1,0,2.,4.8,0.,4.8,0.,4.8,0.,4.8
1979-07-28 12:01:29.490 ,1,0,4.,4.8,0.,4.8,0.,4.8,0.,4.8
1979-07-28 12:01:34.280 ,2,0,3.,4.8,0.,4.8,0.,4.8,0.,4.8
1979-07-28 12:01:39.080 ,2,0,3.,4.8,0.,4.8,0.,4.8,0.,4.8
1979-07-28 12:01:43.890 ,2,0,0.,4.8,0.,4.8,0.,4.8,0.,4.8
1979-07-28 12:01:48.690 ,2,0,5.,4.8,0.,4.8,0.,4.8,0.,4.8
1979-07-28 12:01:53.490 ,2,0,2.,4.8,0.,4.8,0.,4.8,0.,4.8
1979-07-28 12:01:58.280 ,2,0,0.,4.8,0.,4.8,0.,4.8,0.,4.8
1979-07-28 12:02:03.080 ,2,0,3.,4.8,0.,4.8,0.,4.8,0.,4.8
1979-07-28 12:02:07.890 ,2,0,0.,4.8,0.,4.8,0.,4.8,0.,4.8
1979-07-28 12:02:12.680 ,2,0,2.,4.8,0.,4.8,0.,4.8,0.,4.8
1979-07-28 12:02:17.490 ,2,0,3.,4.8,0.,4.8,0.,4.8,0.,4.8
1979-07-28 12:02:22.290 ,3,0,3.,4.8,0.,4.8,0.,4.8,0.,4.8
1979-07-28 12:02:27.090 ,3,0,3.,4.8,0.,4.8,0.,4.8,0.,4.8
1979-07-28 12:02:31.890 ,3,0,3.,4.8,0.,4.8,0.,4.8,0.,4.8
1979-07-28 12:02:36.690 ,3,0,1.,4.8,0.,4.8,0.,4.8,0.,4.8
1979-07-28 12:02:41.490 ,3,0,3.,4.8,0.,4.8,0.,4.8,0.,4.8
1979-07-28 12:02:46.290 ,3,0,1.,4.8,0.,4.8,0.,4.8,0.,4.8
1979-07-28 12:02:51.090 ,3,0,2.,4.8,0.,4.8,0.,4.8,0.,4.8
1979-07-28 12:02:55.890 ,3,0,2.,4.8,0.,4.8,0.,4.8,0.,4.8
1979-07-28 12:03:00.680 ,3,0,0.,4.8,0.,4.8,0.,4.8,0.,4.8
1979-07-28 12:03:05.490 ,3,0,4.,4.8,0.,4.8,0.,4.8,0.,4.8
1979-07-28 12:03:10.290 ,4,0,2.,4.8,0.,4.8,0.,4.8,0.,4.8
1979-07-28 12:03:15.090 ,4,0,4.,4.8,0.,4.8,0.,4.8,0.,4.8
1979-07-28 12:03:19.890 ,4,0,4.,4.8,0.,4.8,0.,4.8,0.,4.8
1979-07-28 12:03:24.680 ,4,0,0.,4.8,0.,4.8,0.,4.8,0.,4.8
1979-07-28 12:03:29.490 ,4,0,0.,4.8,0.,4.8,0.,4.8,0.,4.8
1979-07-28 12:03:34.280 ,4,0,2.,4.8,0.,4.8,0.,4.8,0.,4.8
1979-07-28 12:03:39.090 ,4,0,3.,4.8,0.,4.8,0.,4.8,0.,4.8
1979-07-28 12:03:43.890 ,4,0,2.,4.8,0.,4.8,0.,4.8,0.,4.8
1979-07-28 12:03:48.690 ,4,0,0.,4.8,0.,4.8,0.,4.8,0.,4.8
1979-07-28 12:03:53.490 ,4,0,3.,4.8,0.,4.8,0.,4.8,0.,4.8
1979-07-28 12:03:58.280 ,5,0,2.,4.8,0.,4.8,0.,4.8,0.,4.8
1979-07-28 12:04:03.080 ,5,0,3.,4.8,0.,4.8,0.,4.8,0.,4.8
1979-07-28 12:04:07.880 ,5,0,0.,4.8,0.,4.8,2.,4.8,0.,4.8
1979-07-28 12:04:12.680 ,5,0,1.,4.8,0.,4.8,0.,4.8,0.,4.8
1979-07-28 12:04:17.490 ,5,0,2.,4.8,0.,4.8,0.,4.8,0.,4.8
1979-07-28 12:04:22.290 ,5,0,2.,4.8,1.,4.8,0.,4.8,0.,4.8
1979-07-28 12:04:27.080 ,5,0,2.,4.8,1.,4.8,0.,4.8,0.,4.8
1979-07-28 12:04:31.890 ,5,0,3.,4.8,1.,4.8,0.,4.8,0.,4.8
1979-07-28 12:04:36.680 ,5,0,3.,4.8,0.,4.8,0.,4.8,0.,4.8
1979-07-28 12:04:41.490 ,5,0,2.,4.8,0.,4.8,0.,4.8,0.,4.8
1979-07-28 12:04:46.290 ,6,0,0.,4.8,0.,4.8,0.,4.8,0.,4.8
1979-07-28 12:04:51.080 ,6,0,1.,4.8,0.,4.8,1.,4.8,0.,4.8
1979-07-28 12:04:55.890 ,6,0,3.,4.8,0.,4.8,0.,4.8,0.,4.8
1979-07-28 12:05:00.680 ,6,0,1.,4.8,0.,4.8,0.,4.8,0.,4.8
1979-07-28 12:05:05.490 ,6,0,0.,4.8,0.,4.8,0.,4.8,0.,4.8
1979-07-28 12:05:10.290 ,6,0,2.,4.8,0.,4.8,0.,4.8,0.,4.8
1979-07-28 12:05:15.080 ,6,0,6.,4.8,0.,4.8,0.,4.8,0.,4.8
1979-07-28 12:05:19.890 ,6,0,2.,4.8,0.,4.8,0.,4.8,0.,4.8
1979-07-28 12:05:24.680 ,6,0,1.,4.8,0.,4.8,0.,4.8,0.,4.8
1979-07-28 12:05:29.490 ,6,0,2.,4.8,0.,4.8,0.,4.8,0.,4.8
1979-07-28 12:05:34.290 ,7,0,3.,4.8,0.,4.8,1.,4.8,0.,4.8
1979-07-28 12:05:39.080 ,7,0,4.,4.8,0.,4.8,0.,4.8,0.,4.8
1979-07-28 12:05:43.890 ,7,0,1.,4.8,0.,4.8,0.,4.8,0.,4.8
1979-07-28 12:05:48.680 ,7,0,3.,4.8,0.,4.8,0.,4.8,0.,4.8
1979-07-28 12:05:53.490 ,7,0,0.,4.8,0.,4.8,0.,4.8,0.,4.8
1979-07-28 12:05:58.290 ,7,0,6.,4.8,0.,4.8,0.,4.8,0.,4.8
1979-07-28 12:06:03.080 ,7,0,1.,4.8,0.,4.8,0.,4.8,0.,4.8
1979-07-28 12:06:07.890 ,7,0,1.,4.8,0.,4.8,0.,4.8,0.,4.8
1979-07-28 12:06:12.680 ,7,0,1.,4.8,0.,4.8,0.,4.8,0.,4.8
1979-07-28 12:06:17.490 ,7,0,1.,4.8,0.,4.8,0.,4.8,0.,4.8
1979-07-28 12:06:22.290 ,0,0,0.,4.8,0.,4.8,0.,4.8,0.,4.8
1979-07-28 12:06:27.080 ,0,0,2.,4.8,0.,4.8,0.,4.8,0.,4.8
1979-07-28 12:06:31.890 ,0,0,0.,4.8,0.,4.8,0.,4.8,0.,4.8
1979-07-28 12:06:36.680 ,0,0,2.,4.8,0.,4.8,0.,4.8,0.,4.8
1979-07-28 12:06:41.490 ,0,0,0.,4.8,0.,4.8,0.,4.8,0.,4.8
1979-07-28 12:06:46.290 ,0,0,,0,,0,,0,,0
1979-07-28 12:06:51.080 ,0,0,,0,,0,,0,,0
1979-07-28 12:06:55.890 ,0,0,,0,,0,,0,,0
1979-07-28 12:07:00.680 ,0,0,,0,,0,,0,,0
1979-07-28 12:07:05.490 ,0,0,0.,4.8,0.,4.8,0.,4.8,0.,4.8
1979-07-28 12:07:10.290 ,6,0,0.,4.8,0.,4.8,0.,4.8,0.,4.8
1979-07-28 12:07:15.080 ,6,0,2.,4.8,0.,4.8,1.,4.8,0.,4.8
1979-07-28 12:07:19.890 ,6,0,1.,4.8,0.,4.8,0.,4.8,0.,4.8
1979-07-28 12:07:24.680 ,6,0,3.,4.8,0.,4.8,0.,4.8,0.,4.8
1979-07-28 12:07:29.490 ,6,0,1.,4.8,0.,4.8,0.,4.8,0.,4.8
1979-07-28 12:07:34.290 ,6,0,2.,4.8,0.,4.8,0.,4.8,0.,4.8
1979-07-28 12:07:39.080 ,6,0,4.,4.8,0.,4.8,0.,4.8,0.,4.8
1979-07-28 12:07:43.890 ,6,0,3.,4.8,0.,4.8,0.,4.8,0.,4.8
1979-07-28 12:07:48.680 ,6,0,3.,4.8,0.,4.8,0.,4.8,0.,4.8
1979-07-28 12:07:53.490 ,6,0,2.,4.8,0.,4.8,0.,4.8,0.,4.8
1979-07-28 12:07:58.290 ,5,0,2.,4.8,0.,4.8,0.,4.8,0.,4.8
1979-07-28 12:08:03.080 ,5,0,1.,4.8,0.,4.8,0.,4.8,0.,4.8
1979-07-28 12:08:07.890 ,5,0,0.,4.8,0.,4.8,0.,4.8,0.,4.8
1979-07-28 12:08:12.680 ,5,0,1.,4.8,0.,4.8,0.,4.8,0.,4.8
1979-07-28 12:08:17.490 ,5,0,1.,4.8,0.,4.8,0.,4.8,0.,4.8
1979-07-28 12:08:22.290 ,5,0,3.,4.8,0.,4.8,0.,4.8,0.,4.8
1979-07-28 12:08:27.080 ,5,0,1.,4.8,0.,4.8,0.,4.8,0.,4.8
1979-07-28 12:08:31.890 ,5,0,4.,4.8,0.,4.8,0.,4.8,0.,4.8
1979-07-28 12:08:36.680 ,5,0,2.,4.8,0.,4.8,0.,4.8,0.,4.8
1979-07-28 12:08:41.480 ,5,0,2.,4.8,0.,4.8,0.,4.8,0.,4.8
1979-07-28 12:08:46.280 ,4,0,1.,4.8,0.,4.8,1.,4.8,0.,4.8
1979-07-28 12:08:51.090 ,4,0,2.,4.8,1.,4.8,0.,4.8,0.,4.8
1979-07-28 12:08:55.890 ,4,0,2.,4.8,0.,4.8,0.,4.8,0.,4.8
1979-07-28 12:09:00.680 ,4,0,2.,4.8,0.,4.8,0.,4.8,0.,4.8
1979-07-28 12:09:05.480 ,4,0,1.,4.8,0.,4.8,0.,4.8,0.,4.8
1979-07-28 12:09:10.280 ,4,0,2.,4.8,0.,4.8,0.,4.8,0.,4.8
1979-07-28 12:09:15.090 ,4,0,3.,4.8,0.,4.8,0.,4.8,0.,4.8
1979-07-28 12:09:19.890 ,4,0,4.,4.8,0.,4.8,0.,4.8,0.,4.8
1979-07-28 12:09:24.680 ,4,0,1.,4.8,0.,4.8,0.,4.8,0.,4.8
1979-07-28 12:09:29.480 ,4,0,2.,4.8,0.,4.8,0.,4.8,0.,4.8
1979-07-28 12:09:34.280 ,3,0,2.,4.8,0.,4.8,0.,4.8,0.,4.8
1979-07-28 12:09:39.090 ,3,0,1.,4.8,0.,4.8,0.,4.8,0.,4.8
1979-07-28 12:09:43.890 ,3,0,1.,4.8,0.,4.8,1.,4.8,0.,4.8
1979-07-28 12:09:48.680 ,3,0,2.,4.8,0.,4.8,0.,4.8,0.,4.8
1979-07-28 12:09:53.480 ,3,0,0.,4.8,0.,4.8,1.,4.8,0.,4.8
1979-07-28 12:09:58.280 ,3,0,3.,4.8,0.,4.8,0.,4.8,0.,4.8
1979-07-28 12:10:03.090 ,3,0,2.,4.8,0.,4.8,0.,4.8,0.,4.8
1979-07-28 12:10:07.890 ,3,0,2.,4.8,0.,4.8,1.,4.8,0.,4.8
1979-07-28 12:10:12.680 ,3,0,1.,4.8,0.,4.8,0.,4.8,0.,4.8
1979-07-28 12:10:17.480 ,3,0,1.,4.8,0.,4.8,0.,4.8,0.,4.8
1979-07-28 12:10:22.280 ,2,0,1.,4.8,0.,4.8,0.,4.8,1.,4.8
1979-07-28 12:10:27.090 ,2,0,2.,4.8,0.,4.8,0.,4.8,0.,4.8
1979-07-28 12:10:31.890 ,2,0,2.,4.8,0.,4.8,0.,4.8,0.,4.8
1979-07-28 12:10:36.680 ,2,0,0.,4.8,0.,4.8,0.,4.8,0.,4.8
1979-07-28 12:10:41.480 ,2,0,4.,4.8,0.,4.8,0.,4.8,0.,4.8
1979-07-28 12:10:46.280 ,2,0,5.,4.8,0.,4.8,1.,4.8,0.,4.8
1979-07-28 12:10:51.090 ,2,0,1.,4.8,0.,4.8,0.,4.8,0.,4.8
1979-07-28 12:10:55.890 ,2,0,1.,4.8,0.,4.8,0.,4.8,0.,4.8
1979-07-28 12:11:00.680 ,2,0,1.,4.8,0.,4.8,0.,4.8,0.,4.8
1979-07-28 12:11:05.480 ,2,0,3.,4.8,0.,4.8,0.,4.8,0.,4.8
1979-07-28 12:11:10.280 ,1,0,3.,4.8,0.,4.8,0.,4.8,0.,4.8
1979-07-28 12:11:15.090 ,1,0,3.,4.8,0.,4.8,0.,4.8,0.,4.8
1979-07-28 12:11:19.890 ,1,0,1.,4.8,0.,4.8,0.,4.8,0.,4.8
1979-07-28 12:11:24.680 ,1,0,0.,4.8,0.,4.8,0.,4.8,0.,4.8
1979-07-28 12:11:29.480 ,1,0,3.,4.8,0.,4.8,1.,4.8,0.,4.8
1979-07-28 12:11:34.280 ,1,0,3.,4.8,0.,4.8,0.,4.8,0.,4.8
1979-07-28 12:11:39.090 ,1,0,1.,4.8,0.,4.8,0.,4.8,0.,4.8
1979-07-28 12:11:43.890 ,1,0,2.,4.8,0.,4.8,0.,4.8,0.,4.8
1979-07-28 12:11:48.680 ,1,0,3.,4.8,0.,4.8,0.,4.8,0.,4.8
1979-07-28 12:11:53.480 ,1,0,3.,4.8,0.,4.8,0.,4.8,0.,4.8
1979-07-28 12:11:58.280 ,0,0,3.,4.8,0.,4.8,0.,4.8,0.,4.8
1979-07-28 12:12:03.090 ,0,0,4.,4.8,0.,4.8,0.,4.8,0.,4.8
1979-07-28 12:12:07.890 ,0,0,3.,4.8,0.,4.8,0.,4.8,0.,4.8
1979-07-28 12:12:12.680 ,0,0,1.,4.8,0.,4.8,0.,4.8,0.,4.8
1979-07-28 12:12:17.480 ,0,0,1.,4.8,0.,4.8,0.,4.8,0.,4.8
1979-07-28 12:12:22.280 ,0,0,0.,4.8,0.,4.8,0.,4.8,0.,4.8
1979-07-28 12:12:27.090 ,0,0,3.,4.8,0.,4.8,0.,4.8,0.,4.8
1979-07-28 12:12:31.890 ,0,0,3.,4.8,0.,4.8,0.,4.8,0.,4.8
1979-07-28 12:12:36.680 ,0,0,1.,4.8,0.,4.8,0.,4.8,0.,4.8
1979-07-28 12:12:41.480 ,0,0,0.,4.8,0.,4.8,0.,4.8,0.,4.8
1979-07-28 12:12:46.280 ,0,0,0.,4.8,0.,4.8,0.,4.8,0.,4.8
1979-07-28 12:12:51.090 ,0,0,1.,4.8,0.,4.8,0.,4.8,0.,4.8
1979-07-28 12:12:55.890 ,0,0,1.,4.8,0.,4.8,0.,4.8,0.,4.8
1979-07-28 12:13:00.680 ,0,0,1.,4.8,0.,4.8,1.,4.8,0.,4.8
1979-07-28 12:13:05.480 ,0,0,0.,4.8,0.,4.8,0.,4.8,0.,4.8
1979-07-28 12:13:10.280 ,0,0,2.,4.8,0.,4.8,0.,4.8,0.,4.8
1979-07-28 12:13:15.090 ,0,0,3.,4.8,0.,4.8,1.,4.8,0.,4.8
1979-07-28 12:13:19.890 ,0,0,3.,4.8,0.,4.8,0.,4.8,0.,4.8
1979-07-28 12:13:24.680 ,0,0,1.,4.8,0.,4.8,0.,4.8,0.,4.8
1979-07-28 12:13:29.480 ,0,0,2.,4.8,0.,4.8,0.,4.8,0.,4.8
1979-07-28 12:13:34.280 ,1,0,0.,4.8,0.,4.8,2.,4.8,0.,4.8
1979-07-28 12:13:39.080 ,1,0,2.,4.8,0.,4.8,0.,4.8,0.,4.8
1979-07-28 12:13:43.880 ,1,0,1.,4.8,0.,4.8,0.,4.8,0.,4.8
1979-07-28 12:13:48.680 ,1,0,2.,4.8,0.,4.8,0.,4.8,0.,4.8
1979-07-28 12:13:53.480 ,1,0,3.,4.8,0.,4.8,1.,4.8,0.,4.8
1979-07-28 12:13:58.280 ,1,0,2.,4.8,0.,4.8,0.,4.8,0.,4.8
1979-07-28 12:14:03.080 ,1,0,2.,4.8,0.,4.8,0.,4.8,0.,4.8
1979-07-28 12:14:07.880 ,1,0,1.,4.8,1.,4.8,0.,4.8,0.,4.8
1979-07-28 12:14:12.680 ,1,0,2.,4.8,0.,4.8,0.,4.8,0.,4.8
1979-07-28 12:14:17.480 ,1,0,2.,4.8,0.,4.8,0.,4.8,0.,4.8
1979-07-28 12:14:22.280 ,2,0,3.,4.8,0.,4.8,0.,4.8,0.,4.8
1979-07-28 12:14:27.080 ,2,0,1.,4.8,0.,4.8,0.,4.8,0.,4.8
1979-07-28 12:14:31.880 ,2,0,1.,4.8,0.,4.8,0.,4.8,0.,4.8
1979-07-28 12:14:36.680 ,2,0,0.,4.8,0.,4.8,0.,4.8,0.,4.8
1979-07-28 12:14:41.480 ,2,0,1.,4.8,0.,4.8,0.,4.8,0.,4.8
1979-07-28 12:14:46.280 ,2,0,0.,4.8,0.,4.8,0.,4.8,0.,4.8
1979-07-28 12:14:51.080 ,2,0,2.,4.8,0.,4.8,1.,4.8,0.,4.8
1979-07-28 12:14:55.880 ,2,0,1.,4.8,0.,4.8,0.,4.8,0.,4.8
1979-07-28 12:15:00.680 ,2,0,3.,4.8,0.,4.8,0.,4.8,0.,4.8
1979-07-28 12:15:05.480 ,2,0,4.,4.8,0.,4.8,0.,4.8,0.,4.8
1979-07-28 12:15:10.280 ,3,0,4.,4.8,0.,4.8,0.,4.8,0.,4.8
1979-07-28 12:15:15.080 ,3,0,1.,4.8,0.,4.8,0.,4.8,0.,4.8
1979-07-28 12:15:19.880 ,3,0,3.,4.8,0.,4.8,0.,4.8,0.,4.8
1979-07-28 12:15:24.680 ,3,0,3.,4.8,0.,4.8,0.,4.8,0.,4.8
1979-07-28 12:15:29.480 ,3,0,2.,4.8,0.,4.8,0.,4.8,0.,4.8
1979-07-28 12:15:34.280 ,3,0,1.,4.8,0.,4.8,0.,4.8,0.,4.8
1979-07-28 12:15:39.080 ,3,0,1.,4.8,0.,4.8,0.,4.8,0.,4.8
1979-07-28 12:15:43.880 ,3,0,4.,4.8,0.,4.8,0.,4.8,0.,4.8
1979-07-28 12:15:48.680 ,3,0,2.,4.8,0.,4.8,0.,4.8,0.,4.8
1979-07-28 12:15:53.480 ,3,0,6.,4.8,0.,4.8,0.,4.8,0.,4.8
1979-07-28 12:15:58.280 ,4,0,2.,4.8,0.,4.8,0.,4.8,0.,4.8
1979-07-28 12:16:03.080 ,4,0,1.,4.8,0.,4.8,0.,4.8,0.,4.8
1979-07-28 12:16:07.880 ,4,0,2.,4.8,0.,4.8,0.,4.8,0.,4.8
1979-07-28 12:16:12.680 ,4,0,3.,4.8,0.,4.8,1.,4.8,0.,4.8
1979-07-28 12:16:17.480 ,4,0,3.,4.8,0.,4.8,1.,4.8,0.,4.8
1979-07-28 12:16:22.280 ,4,0,1.,4.8,0.,4.8,0.,4.8,0.,4.8
1979-07-28 12:16:27.080 ,4,0,2.,4.8,0.,4.8,0.,4.8,0.,4.8
1979-07-28 12:16:31.880 ,4,0,3.,4.8,0.,4.8,0.,4.8,0.,4.8
1979-07-28 12:16:36.680 ,4,0,3.,4.8,0.,4.8,1.,4.8,0.,4.8
1979-07-28 12:16:41.480 ,4,0,4.,4.8,0.,4.8,0.,4.8,0.,4.8
1979-07-28 12:16:46.280 ,5,0,2.,4.8,0.,4.8,0.,4.8,0.,4.8
1979-07-28 12:16:51.080 ,5,0,3.,4.8,0.,4.8,0.,4.8,0.,4.8
1979-07-28 12:16:55.880 ,5,0,2.,4.8,0.,4.8,0.,4.8,0.,4.8
1979-07-28 12:17:00.680 ,5,0,1.,4.8,0.,4.8,0.,4.8,0.,4.8
1979-07-28 12:17:05.480 ,5,0,1.,4.8,0.,4.8,0.,4.8,0.,4.8
1979-07-28 12:17:10.280 ,5,0,2.,4.8,0.,4.8,0.,4.8,0.,4.8
1979-07-28 12:17:15.080 ,5,0,0.,4.8,0.,4.8,0.,4.8,0.,4.8
1979-07-28 12:17:19.880 ,5,0,1.,4.8,0.,4.8,0.,4.8,0.,4.8
1979-07-28 12:17:24.680 ,5,0,4.,4.8,0.,4.8,0.,4.8,0.,4.8
1979-07-28 12:17:29.480 ,5,0,0.,4.8,0.,4.8,0.,4.8,0.,4.8
1979-07-28 12:17:34.280 ,6,0,2.,4.8,0.,4.8,0.,4.8,0.,4.8
1979-07-28 12:17:39.080 ,6,0,1.,4.8,0.,4.8,0.,4.8,0.,4.8
1979-07-28 12:17:43.880 ,6,0,2.,4.8,1.,4.8,1.,4.8,0.,4.8
1979-07-28 12:17:48.680 ,6,0,4.,4.8,0.,4.8,0.,4.8,0.,4.8
1979-07-28 12:17:53.480 ,6,0,3.,4.8,0.,4.8,0.,4.8,0.,4.8
1979-07-28 12:17:58.280 ,6,0,1.,4.8,0.,4.8,0.,4.8,0.,4.8
1979-07-28 12:18:03.080 ,6,0,2.,4.8,0.,4.8,0.,4.8,0.,4.8
1979-07-28 12:18:07.880 ,6,0,1.,4.8,0.,4.8,0.,4.8,0.,4.8
1979-07-28 12:18:12.680 ,6,0,2.,4.8,0.,4.8,0.,4.8,0.,4.8
1979-07-28 12:18:17.480 ,6,0,2.,4.8,0.,4.8,1.,4.8,0.,4.8
1979-07-28 12:18:22.280 ,7,0,5.,4.8,0.,4.8,0.,4.8,0.,4.8
1979-07-28 12:18:27.080 ,7,0,2.,4.8,0.,4.8,0.,4.8,0.,4.8
1979-07-28 12:18:31.880 ,7,0,0.,4.8,0.,4.8,0.,4.8,0.,4.8
1979-07-28 12:18:36.680 ,7,0,2.,4.8,0.,4.8,0.,4.8,0.,4.8
1979-07-28 12:18:41.480 ,7,0,0.,4.8,0.,4.8,0.,4.8,0.,4.8
1979-07-28 12:18:46.280 ,7,0,1.,4.8,0.,4.8,0.,4.8,0.,4.8
1979-07-28 12:18:51.080 ,7,0,2.,4.8,1.,4.8,0.,4.8,0.,4.8
1979-07-28 12:18:55.880 ,7,0,1.,4.8,0.,4.8,0.,4.8,0.,4.8
1979-07-28 12:19:00.680 ,7,0,1.,4.8,0.,4.8,0.,4.8,0.,4.8
1979-07-28 12:19:05.480 ,7,0,4.,4.8,0.,4.8,0.,4.8,0.,4.8
1979-07-28 12:19:10.280 ,3,1,0.,4.8,0.,4.8,0.,4.8,0.,4.8
1979-07-28 12:19:15.080 ,3,1,1.,4.8,0.,4.8,0.,4.8,0.,4.8
1979-07-28 12:19:19.880 ,3,1,1.,4.8,0.,4.8,0.,4.8,0.,4.8
1979-07-28 12:19:24.680 ,3,1,3.,4.8,0.,4.8,0.,4.8,0.,4.8
1979-07-28 12:19:29.480 ,3,1,2.,4.8,1.,4.8,0.,4.8,0.,4.8
1979-07-28 12:19:34.280 ,0,1,0.,4.8,0.,4.8,0.,4.8,0.,4.8
1979-07-28 12:19:39.080 ,0,1,1.,4.8,0.,4.8,0.,4.8,0.,4.8
1979-07-28 12:19:43.880 ,0,1,2.,4.8,0.,4.8,0.,4.8,0.,4.8
1979-07-28 12:19:48.680 ,0,1,0.,4.8,0.,4.8,0.,4.8,0.,4.8
1979-07-28 12:19:53.480 ,0,1,4.,4.8,0.,4.8,0.,4.8,0.,4.8
1979-07-28 12:19:58.280 ,4,1,0.,4.8,0.,4.8,0.,4.8,0.,4.8
1979-07-28 12:20:03.080 ,4,1,4.,4.8,0.,4.8,0.,4.8,0.,4.8
1979-07-28 12:20:07.880 ,4,1,1.,4.8,0.,4.8,0.,4.8,0.,4.8
1979-07-28 12:20:12.680 ,4,1,1.,4.8,0.,4.8,0.,4.8,0.,4.8
1979-07-28 12:20:17.480 ,4,1,3.,4.8,0.,4.8,0.,4.8,0.,4.8
1979-07-28 12:20:22.280 ,7,1,2.,4.8,1.,4.8,0.,4.8,0.,4.8
1979-07-28 12:20:27.080 ,7,1,6.,4.8,0.,4.8,0.,4.8,0.,4.8
1979-07-28 12:20:31.880 ,7,1,2.,4.8,0.,4.8,0.,4.8,0.,4.8
1979-07-28 12:20:36.680 ,7,1,0.,4.8,0.,4.8,1.,4.8,0.,4.8
1979-07-28 12:20:41.480 ,7,1,1.,4.8,0.,4.8,0.,4.8,0.,4.8
1979-07-28 12:20:46.280 ,3,1,1.,4.8,0.,4.8,0.,4.8,0.,4.8
1979-07-28 12:20:51.080 ,3,1,1.,4.8,0.,4.8,0.,4.8,0.,4.8
1979-07-28 12:20:55.880 ,3,1,1.,4.8,0.,4.8,0.,4.8,0.,4.8
1979-07-28 12:21:00.680 ,3,1,1.,4.8,0.,4.8,0.,4.8,0.,4.8
1979-07-28 12:21:05.480 ,3,1,1.,4.8,0.,4.8,0.,4.8,0.,4.8
1979-07-28 12:21:10.280 ,0,1,0.,4.8,0.,4.8,0.,4.8,0.,4.8
1979-07-28 12:21:15.080 ,0,1,3.,4.8,0.,4.8,0.,4.8,0.,4.8
1979-07-28 12:21:19.880 ,0,1,5.,4.8,0.,4.8,0.,4.8,0.,4.8
1979-07-28 12:21:24.680 ,0,1,1.,4.8,0.,4.8,0.,4.8,0.,4.8
1979-07-28 12:21:29.480 ,0,1,2.,4.8,0.,4.8,1.,4.8,0.,4.8
1979-07-28 12:21:34.280 ,4,1,2.,4.8,0.,4.8,0.,4.8,0.,4.8
1979-07-28 12:21:39.080 ,4,1,3.,4.8,0.,4.8,0.,4.8,0.,4.8
1979-07-28 12:21:43.880 ,4,1,2.,4.8,0.,4.8,1.,4.8,0.,4.8
1979-07-28 12:21:48.680 ,4,1,3.,4.8,0.,4.8,0.,4.8,0.,4.8
1979-07-28 12:21:53.480 ,4,1,2.,4.8,0.,4.8,0.,4.8,0.,4.8
1979-07-28 12:21:58.280 ,7,1,4.,4.8,0.,4.8,0.,4.8,0.,4.8
1979-07-28 12:22:03.080 ,7,1,1.,4.8,0.,4.8,0.,4.8,0.,4.8
1979-07-28 12:22:07.880 ,7,1,0.,4.8,0.,4.8,0.,4.8,0.,4.8
1979-07-28 12:22:12.680 ,7,1,1.,4.8,0.,4.8,0.,4.8,0.,4.8
1979-07-28 12:22:17.480 ,7,1,0.,4.8,0.,4.8,0.,4.8,0.,4.8
1979-07-28 12:22:22.280 ,3,1,1.,4.8,0.,4.8,0.,4.8,0.,4.8
1979-07-28 12:22:27.080 ,3,1,1.,4.8,0.,4.8,0.,4.8,0.,4.8
1979-07-28 12:22:31.880 ,3,1,2.,4.8,0.,4.8,0.,4.8,0.,4.8
1979-07-28 12:22:36.680 ,3,1,4.,4.8,0.,4.8,0.,4.8,0.,4.8
1979-07-28 12:22:41.480 ,3,1,2.,4.8,0.,4.8,0.,4.8,0.,4.8
1979-07-28 12:22:46.280 ,0,1,1.,4.8,0.,4.8,0.,4.8,0.,4.8
1979-07-28 12:22:51.080 ,0,1,3.,4.8,0.,4.8,0.,4.8,0.,4.8
1979-07-28 12:22:55.880 ,0,1,3.,4.8,0.,4.8,0.,4.8,0.,4.8
1979-07-28 12:23:00.680 ,0,1,1.,4.8,0.,4.8,0.,4.8,0.,4.8
1979-07-28 12:23:05.480 ,0,1,0.,4.8,0.,4.8,0.,4.8,0.,4.8
1979-07-28 12:23:10.280 ,4,1,2.,4.8,0.,4.8,0.,4.8,0.,4.8
1979-07-28 12:23:15.080 ,4,1,0.,4.8,0.,4.8,0.,4.8,0.,4.8
1979-07-28 12:23:19.880 ,4,1,1.,4.8,0.,4.8,0.,4.8,0.,4.8
1979-07-28 12:23:24.680 ,4,1,0.,4.8,0.,4.8,0.,4.8,0.,4.8
1979-07-28 12:23:29.480 ,4,1,0.,4.8,0.,4.8,0.,4.8,0.,4.8
1979-07-28 12:23:34.280 ,7,1,1.,4.8,0.,4.8,0.,4.8,0.,4.8
1979-07-28 12:23:39.080 ,7,1,3.,4.8,0.,4.8,0.,4.8,0.,4.8
1979-07-28 12:23:43.880 ,7,1,3.,4.8,0.,4.8,0.,4.8,0.,4.8
1979-07-28 12:23:48.680 ,7,1,1.,4.8,0.,4.8,0.,4.8,0.,4.8
1979-07-28 12:23:53.480 ,7,1,1.,4.8,0.,4.8,0.,4.8,0.,4.8
1979-07-28 12:23:58.280 ,3,1,2.,4.8,0.,4.8,0.,4.8,0.,4.8
1979-07-28 12:24:03.080 ,3,1,2.,4.8,0.,4.8,0.,4.8,0.,4.8
1979-07-28 12:24:07.880 ,3,1,1.,4.8,0.,4.8,0.,4.8,0.,4.8
1979-07-28 12:24:12.680 ,3,1,4.,4.8,0.,4.8,0.,4.8,0.,4.8
1979-07-28 12:24:17.480 ,3,1,2.,4.8,1.,4.8,0.,4.8,0.,4.8
1979-07-28 12:24:22.280 ,0,1,5.,4.8,0.,4.8,0.,4.8,0.,4.8
1979-07-28 12:24:27.080 ,0,1,3.,4.8,0.,4.8,0.,4.8,0.,4.8
1979-07-28 12:24:31.880 ,0,1,3.,4.8,0.,4.8,0.,4.8,0.,4.8
1979-07-28 12:24:36.680 ,0,1,3.,4.8,0.,4.8,0.,4.8,0.,4.8
1979-07-28 12:24:41.480 ,0,1,1.,4.8,0.,4.8,0.,4.8,0.,4.8
1979-07-28 12:24:46.280 ,4,1,2.,4.8,0.,4.8,0.,4.8,0.,4.8
1979-07-28 12:24:51.080 ,4,1,0.,4.8,0.,4.8,0.,4.8,0.,4.8
1979-07-28 12:24:55.880 ,4,1,2.,4.8,0.,4.8,0.,4.8,0.,4.8
1979-07-28 12:25:00.680 ,4,1,2.,4.8,0.,4.8,1.,4.8,0.,4.8
1979-07-28 12:25:05.480 ,4,1,3.,4.8,0.,4.8,0.,4.8,0.,4.8
1979-07-28 12:25:10.280 ,7,1,3.,4.8,0.,4.8,0.,4.8,0.,4.8
1979-07-28 12:25:15.080 ,7,1,2.,4.8,0.,4.8,0.,4.8,0.,4.8
1979-07-28 12:25:19.880 ,7,1,4.,4.8,0.,4.8,0.,4.8,0.,4.8
1979-07-28 12:25:24.680 ,7,1,3.,4.8,0.,4.8,0.,4.8,0.,4.8
1979-07-28 12:25:29.480 ,7,1,1.,4.8,0.,4.8,0.,4.8,0.,4.8
1979-07-28 12:25:34.280 ,3,1,2.,4.8,0.,4.8,0.,4.8,0.,4.8
1979-07-28 12:25:39.080 ,3,1,0.,4.8,0.,4.8,0.,4.8,0.,4.8
1979-07-28 12:25:43.880 ,3,1,1.,4.8,0.,4.8,0.,4.8,0.,4.8
1979-07-28 12:25:48.680 ,3,1,4.,4.8,0.,4.8,0.,4.8,0.,4.8
1979-07-28 12:25:53.480 ,3,1,2.,4.8,0.,4.8,0.,4.8,0.,4.8
1979-07-28 12:25:58.280 ,0,1,3.,4.8,0.,4.8,0.,4.8,0.,4.8
1979-07-28 12:26:03.080 ,0,1,2.,4.8,0.,4.8,0.,4.8,0.,4.8
1979-07-28 12:26:07.880 ,0,1,3.,4.8,0.,4.8,0.,4.8,0.,4.8
1979-07-28 12:26:12.680 ,0,1,2.,4.8,1.,4.8,0.,4.8,0.,4.8
1979-07-28 12:26:17.480 ,0,1,3.,4.8,0.,4.8,0.,4.8,0.,4.8
1979-07-28 12:26:22.280 ,4,1,1.,4.8,0.,4.8,0.,4.8,0.,4.8
1979-07-28 12:26:27.080 ,4,1,6.,4.8,0.,4.8,0.,4.8,0.,4.8
1979-07-28 12:26:31.880 ,4,1,4.,4.8,0.,4.8,0.,4.8,0.,4.8
1979-07-28 12:26:36.680 ,4,1,4.,4.8,0.,4.8,0.,4.8,0.,4.8
1979-07-28 12:26:41.480 ,4,1,2.,4.8,0.,4.8,0.,4.8,0.,4.8
1979-07-28 12:26:46.280 ,7,1,3.,4.8,0.,4.8,0.,4.8,0.,4.8
1979-07-28 12:26:51.080 ,7,1,1.,4.8,0.,4.8,0.,4.8,0.,4.8
1979-07-28 12:26:55.880 ,7,1,3.,4.8,0.,4.8,0.,4.8,0.,4.8
1979-07-28 12:27:00.680 ,7,1,2.,4.8,0.,4.8,0.,4.8,0.,4.8
1979-07-28 12:27:05.480 ,7,1,0.,4.8,0.,4.8,0.,4.8,0.,4.8
1979-07-28 12:27:10.280 ,3,1,2.,4.8,0.,4.8,0.,4.8,0.,4.8
1979-07-28 12:27:15.080 ,3,1,0.,4.8,0.,4.8,0.,4.8,0.,4.8
1979-07-28 12:27:19.880 ,3,1,4.,4.8,0.,4.8,0.,4.8,0.,4.8
1979-07-28 12:27:24.680 ,3,1,5.,4.8,0.,4.8,0.,4.8,0.,4.8
1979-07-28 12:27:29.480 ,3,1,2.,4.8,0.,4.8,0.,4.8,0.,4.8
1979-07-28 12:27:34.280 ,0,1,3.,4.8,0.,4.8,0.,4.8,0.,4.8
1979-07-28 12:27:39.080 ,0,1,4.,4.8,0.,4.8,0.,4.8,0.,4.8
1979-07-28 12:27:43.880 ,0,1,3.,4.8,0.,4.8,2.,4.8,0.,4.8
1979-07-28 12:27:48.680 ,0,1,2.,4.8,0.,4.8,0.,4.8,0.,4.8
1979-07-28 12:27:53.480 ,0,1,4.,4.8,0.,4.8,0.,4.8,0.,4.8
1979-07-28 12:27:58.280 ,4,1,3.,4.8,0.,4.8,0.,4.8,0.,4.8
1979-07-28 12:28:03.080 ,4,1,0.,4.8,0.,4.8,2.,4.8,0.,4.8
1979-07-28 12:28:07.880 ,4,1,2.,4.8,0.,4.8,0.,4.8,0.,4.8
1979-07-28 12:28:12.680 ,4,1,1.,4.8,0.,4.8,0.,4.8,0.,4.8
1979-07-28 12:28:17.480 ,4,1,3.,4.8,1.,4.8,1.,4.8,0.,4.8
1979-07-28 12:28:22.280 ,7,1,4.,4.8,0.,4.8,1.,4.8,0.,4.8
1979-07-28 12:28:27.080 ,7,1,2.,4.8,0.,4.8,0.,4.8,0.,4.8
1979-07-28 12:28:31.880 ,7,1,2.,4.8,0.,4.8,1.,4.8,0.,4.8
1979-07-28 12:28:36.680 ,7,1,3.,4.8,1.,4.8,0.,4.8,0.,4.8
1979-07-28 12:28:41.480 ,7,1,1.,4.8,0.,4.8,0.,4.8,0.,4.8
1979-07-28 12:28:46.280 ,3,1,2.,4.8,0.,4.8,0.,4.8,0.,4.8
1979-07-28 12:28:51.080 ,3,1,3.,4.8,0.,4.8,0.,4.8,0.,4.8
1979-07-28 12:28:55.880 ,3,1,1.,4.8,0.,4.8,0.,4.8,0.,4.8
1979-07-28 12:29:00.680 ,3,1,1.,4.8,0.,4.8,0.,4.8,0.,4.8
1979-07-28 12:29:05.480 ,3,1,1.,4.8,0.,4.8,0.,4.8,0.,4.8
1979-07-28 12:29:10.280 ,0,1,1.,4.8,0.,4.8,1.,4.8,0.,4.8
1979-07-28 12:29:15.080 ,0,1,2.,4.8,0.,4.8,1.,4.8,0.,4.8
1979-07-28 12:29:19.880 ,0,1,0.,4.8,0.,4.8,0.,4.8,0.,4.8
1979-07-28 12:29:24.680 ,0,1,1.,4.8,0.,4.8,0.,4.8,0.,4.8
1979-07-28 12:29:29.480 ,0,1,0.,4.8,0.,4.8,1.,4.8,0.,4.8
1979-07-28 12:29:34.280 ,0,0,0.,4.8,0.,4.8,1.,4.8,0.,4.8
1979-07-28 12:29:39.080 ,0,0,2.,4.8,0.,4.8,0.,4.8,0.,4.8
1979-07-28 12:29:43.880 ,0,0,4.,4.8,0.,4.8,0.,4.8,0.,4.8
1979-07-28 12:29:48.680 ,0,0,3.,4.8,0.,4.8,0.,4.8,0.,4.8
1979-07-28 12:29:53.480 ,0,0,6.,4.8,0.,4.8,0.,4.8,0.,4.8
1979-07-28 12:29:58.280 ,0,0,4.,4.8,0.,4.8,0.,4.8,0.,4.8
1979-07-28 12:30:03.080 ,0,0,2.,4.8,0.,4.8,0.,4.8,0.,4.8
1979-07-28 12:30:07.880 ,0,0,3.,4.8,0.,4.8,1.,4.8,0.,4.8
1979-07-28 12:30:12.680 ,0,0,1.,4.8,0.,4.8,0.,4.8,0.,4.8
1979-07-28 12:30:17.480 ,0,0,1.,4.8,0.,4.8,0.,4.8,0.,4.8
1979-07-28 12:30:22.280 ,5,0,6.,4.8,0.,4.8,0.,4.8,0.,4.8
1979-07-28 12:30:27.080 ,5,0,0.,4.8,2.,4.8,0.,4.8,0.,4.8
1979-07-28 12:30:31.880 ,5,0,3.,4.8,0.,4.8,0.,4.8,0.,4.8
1979-07-28 12:30:36.680 ,5,0,2.,4.8,0.,4.8,0.,4.8,0.,4.8
1979-07-28 12:30:41.480 ,5,0,3.,4.8,0.,4.8,0.,4.8,0.,4.8
1979-07-28 12:30:46.280 ,5,0,2.,4.8,0.,4.8,0.,4.8,0.,4.8
1979-07-28 12:30:51.080 ,5,0,0.,4.8,0.,4.8,0.,4.8,0.,4.8
1979-07-28 12:30:55.880 ,5,0,1.,4.8,0.,4.8,0.,4.8,0.,4.8
1979-07-28 12:31:00.680 ,5,0,3.,4.8,0.,4.8,0.,4.8,0.,4.8
1979-07-28 12:31:05.480 ,5,0,1.,4.8,1.,4.8,0.,4.8,0.,4.8
1979-07-28 12:31:10.280 ,4,0,4.,4.8,0.,4.8,0.,4.8,0.,4.8
1979-07-28 12:31:15.080 ,4,0,2.,4.8,0.,4.8,0.,4.8,0.,4.8
1979-07-28 12:31:19.880 ,4,0,2.,4.8,0.,4.8,0.,4.8,0.,4.8
1979-07-28 12:31:24.680 ,4,0,1.,4.8,0.,4.8,0.,4.8,0.,4.8
1979-07-28 12:31:29.480 ,4,0,5.,4.8,0.,4.8,0.,4.8,0.,4.8
1979-07-28 12:31:34.280 ,4,0,1.,4.8,0.,4.8,0.,4.8,0.,4.8
1979-07-28 12:31:39.080 ,4,0,4.,4.8,0.,4.8,0.,4.8,0.,4.8
1979-07-28 12:31:43.880 ,4,0,2.,4.8,0.,4.8,0.,4.8,0.,4.8
1979-07-28 12:31:48.680 ,4,0,1.,4.8,0.,4.8,0.,4.8,0.,4.8
1979-07-28 12:31:53.480 ,4,0,3.,4.8,0.,4.8,0.,4.8,0.,4.8
1979-07-28 12:31:58.280 ,3,0,1.,4.8,0.,4.8,0.,4.8,0.,4.8
1979-07-28 12:32:03.080 ,3,0,1.,4.8,0.,4.8,1.,4.8,0.,4.8
1979-07-28 12:32:07.880 ,3,0,4.,4.8,0.,4.8,0.,4.8,0.,4.8
1979-07-28 12:32:12.680 ,3,0,7.,4.8,0.,4.8,0.,4.8,0.,4.8
1979-07-28 12:32:17.480 ,3,0,1.,4.8,0.,4.8,1.,4.8,0.,4.8
1979-07-28 12:32:22.280 ,3,0,2.,4.8,0.,4.8,0.,4.8,0.,4.8
1979-07-28 12:32:27.080 ,3,0,4.,4.8,0.,4.8,1.,4.8,0.,4.8
1979-07-28 12:32:31.880 ,3,0,2.,4.8,0.,4.8,0.,4.8,0.,4.8
1979-07-28 12:32:36.680 ,3,0,1.,4.8,0.,4.8,0.,4.8,0.,4.8
1979-07-28 12:32:41.480 ,3,0,3.,4.8,0.,4.8,0.,4.8,0.,4.8
1979-07-28 12:32:46.280 ,2,0,1.,4.8,0.,4.8,0.,4.8,0.,4.8
1979-07-28 12:32:51.080 ,2,0,1.,4.8,0.,4.8,0.,4.8,0.,4.8
1979-07-28 12:32:55.880 ,2,0,1.,4.8,0.,4.8,0.,4.8,0.,4.8
1979-07-28 12:33:00.680 ,2,0,1.,4.8,0.,4.8,1.,4.8,0.,4.8
1979-07-28 12:33:05.480 ,2,0,1.,4.8,0.,4.8,1.,4.8,0.,4.8
1979-07-28 12:33:10.280 ,2,0,2.,4.8,0.,4.8,0.,4.8,0.,4.8
1979-07-28 12:33:15.080 ,2,0,2.,4.8,0.,4.8,0.,4.8,0.,4.8
1979-07-28 12:33:19.880 ,2,0,2.,4.8,0.,4.8,0.,4.8,0.,4.8